| time (UTC) | temp F | wind direction | speed knots | gust knots | rain 1hr in | rain 24hr in | rain mn in | humidity % | barometer mb |
| 20260505194605 | 77 | 178 | 10.4 | 19.1 | 0.00 | 0.00 | 0.00 | 40 | 1008.0 |
| 20260505193056 | 75 | 214 | 7.0 | 15.6 | 0.00 | 0.00 | 0.00 | 47 | 1008.3 |
| 20260505191558 | 78 | 144 | 7.0 | 14.8 | 0.00 | 0.00 | 0.00 | 42 | 1008.5 |
| 20260505190053 | 78 | 167 | 10.4 | 18.2 | 0.00 | 0.00 | 0.00 | 41 | 1008.8 |
| 20260505184555 | 78 | 195 | 11.3 | 23.5 | 0.00 | 0.00 | 0.00 | 40 | 1009.1 |
| 20260505183101 | 77 | 199 | 8.7 | 21.7 | 0.00 | 0.00 | 0.00 | 42 | 1009.2 |
| 20260505181555 | 76 | 206 | 9.6 | 17.4 | 0.00 | 0.00 | 0.00 | 45 | 1009.2 |
| 20260505180056 | 77 | 187 | 8.7 | 18.2 | 0.00 | 0.00 | 0.00 | 42 | 1009.2 |
| 20260505174558 | 77 | 195 | 9.6 | 14.8 | 0.00 | 0.00 | 0.00 | 43 | 1009.3 |
| 20260505173056 | 76 | 218 | 10.4 | 17.4 | 0.00 | 0.00 | 0.00 | 44 | 1009.6 |
| 20260505171555 | 72 | 175 | 7.8 | 13.0 | 0.00 | 0.00 | 0.00 | 51 | 1009.8 |
| 20260505170057 | 74 | 185 | 7.8 | 14.8 | 0.00 | 0.00 | 0.00 | 47 | 1009.9 |
| 20260505164601 | 71 | 191 | 6.1 | 10.4 | 0.00 | 0.00 | 0.00 | 52 | 1010.2 |
| 20260505163100 | 70 | 194 | 7.8 | 12.2 | 0.00 | 0.00 | 0.00 | 54 | 1010.3 |
| 20260505161553 | 70 | 183 | 6.1 | 12.2 | 0.00 | 0.00 | 0.00 | 56 | 1010.4 |
| 20260505153115 | 71 | 182 | 6.1 | 12.2 | 0.00 | 0.00 | 0.00 | 52 | 1010.9 |
| 20260505151600 | 70 | 176 | 7.0 | 12.2 | 0.00 | 0.00 | 0.00 | 55 | 1011.1 |
| 20260505140107 | 65 | 177 | 9.6 | 13.9 | 0.00 | 0.00 | 0.00 | 64 | 1011.4 |
| 20260505124555 | 65 | 201 | 7.0 | 12.2 | 0.00 | 0.00 | 0.00 | 62 | 1011.1 |
| 20260505123104 | 63 | 170 | 7.0 | 13.0 | 0.00 | 0.00 | 0.00 | 65 | 1011.2 |
| 20260505121556 | 62 | 179 | 6.1 | 8.7 | 0.00 | 0.00 | 0.00 | 66 | 1011.0 |
| 20260505120059 | 62 | 181 | 5.2 | 9.6 | 0.00 | 0.00 | 0.00 | 67 | 1011.2 |
| 20260505114558 | 61 | 165 | 4.3 | 10.4 | 0.00 | 0.00 | 0.00 | 69 | 1011.0 |
| 20260505113101 | 60 | 166 | 4.3 | 8.7 | 0.00 | 0.00 | 0.00 | 70 | 1011.3 |
| 20260505111601 | 60 | 171 | 4.3 | 9.6 | 0.00 | 0.00 | 0.00 | 69 | 1011.2 |
| 20260505101602 | 59 | 173 | 6.1 | 8.7 | 0.00 | 0.00 | 0.00 | 72 | 1011.1 |
| 20260505100057 | 60 | 175 | 5.2 | 10.4 | 0.00 | 0.00 | 0.00 | 70 | 1010.9 |
| 20260505094603 | 60 | 180 | 5.2 | 9.6 | 0.00 | 0.00 | 0.00 | 69 | 1010.4 |
| 20260505093058 | 60 | 171 | 6.1 | 10.4 | 0.00 | 0.00 | 0.00 | 69 | 1010.2 |
| 20260505091600 | 60 | 191 | 6.1 | 11.3 | 0.00 | 0.00 | 0.00 | 68 | 1010.4 |
| 20260505090059 | 60 | 158 | 6.1 | 9.6 | 0.00 | 0.00 | 0.00 | 68 | 1010.4 |
| 20260505084554 | 60 | 165 | 8.7 | 13.9 | 0.00 | 0.00 | 0.00 | 67 | 1010.2 |
| 20260505083100 | 60 | 179 | 5.2 | 9.6 | 0.00 | 0.00 | 0.00 | 66 | 1010.3 |
| 20260505081601 | 61 | 179 | 7.0 | 10.4 | 0.00 | 0.00 | 0.00 | 65 | 1010.3 |
| 20260505080059 | 61 | 163 | 5.2 | 12.2 | 0.00 | 0.00 | 0.00 | 65 | 1010.2 |
| 20260505074610 | 61 | 162 | 7.0 | 10.4 | 0.00 | 0.00 | 0.00 | 65 | 1010.3 |
| 20260505073100 | 61 | 176 | 7.0 | 10.4 | 0.00 | 0.00 | 0.00 | 64 | 1010.1 |
| 20260505071600 | 61 | 163 | 4.3 | 8.7 | 0.00 | 0.00 | 0.00 | 65 | 1010.2 |
| 20260505070056 | 61 | 167 | 7.0 | 12.2 | 0.00 | 0.00 | 0.00 | 62 | 1010.2 |
| 20260505064556 | 61 | 166 | 7.0 | 11.3 | 0.00 | 0.00 | 0.00 | 63 | 1010.1 |
| 20260505063058 | 61 | 177 | 7.0 | 12.2 | 0.00 | 0.00 | 0.00 | 63 | 1010.3 |
| 20260505061628 | 62 | 188 | 7.0 | 12.2 | 0.00 | 0.00 | 0.00 | 62 | 1010.4 |
| 20260505060100 | 62 | 179 | 7.0 | 13.9 | 0.00 | 0.00 | 0.00 | 61 | 1010.3 |
| 20260505054616 | 62 | 184 | 7.0 | 13.9 | 0.00 | 0.00 | 0.00 | 61 | 1010.4 |
| 20260505053057 | 62 | 173 | 8.7 | 13.9 | 0.00 | 0.00 | 0.00 | 60 | 1010.4 |
| 20260505051559 | 62 | 189 | 9.6 | 16.5 | 0.00 | 0.00 | 0.00 | 59 | 1010.7 |
| 20260505041602 | 62 | 174 | 8.7 | 14.8 | 0.00 | 0.00 | 0.00 | 59 | 1010.8 |
| 20260505034600 | 62 | 177 | 11.3 | 19.1 | 0.00 | 0.00 | 0.00 | 59 | 1011.0 |
| 20260505033058 | 62 | 183 | 9.6 | 15.6 | 0.00 | 0.00 | 0.00 | 58 | 1010.9 |
| 20260505031601 | 63 | 188 | 8.7 | 15.6 | 0.00 | 0.00 | 0.00 | 55 | 1011.0 |
| 20260505030056 | 63 | 193 | 9.6 | 15.6 | 0.00 | 0.00 | 0.00 | 54 | 1011.1 |
| 20260505024608 | 63 | 178 | 7.8 | 16.5 | 0.00 | 0.00 | 0.00 | 54 | 1011.2 |
| 20260505023101 | 64 | 210 | 10.4 | 20.0 | 0.00 | 0.00 | 0.00 | 52 | 1011.2 |
| 20260505021613 | 64 | 193 | 8.7 | 15.6 | 0.00 | 0.00 | 0.00 | 52 | 1011.3 |
| 20260505014555 | 64 | 179 | 8.7 | 14.8 | 0.00 | 0.00 | 0.00 | 53 | 1011.2 |
| 20260505013058 | 64 | 193 | 7.0 | 15.6 | 0.00 | 0.00 | 0.00 | 55 | 1011.2 |
| 20260505011558 | 63 | 167 | 7.8 | 13.0 | 0.00 | 0.00 | 0.00 | 57 | 1010.9 |
| 20260505010057 | 63 | 207 | 9.6 | 16.5 | 0.00 | 0.00 | 0.00 | 58 | 1010.9 |
| 20260505004557 | 64 | 140 | 7.8 | 14.8 | 0.00 | 0.00 | 0.00 | 57 | 1010.4 |
| 20260505003054 | 65 | 177 | 5.2 | 9.6 | 0.00 | 0.00 | 0.00 | 52 | 1010.2 |
| 20260505001557 | 66 | 205 | 5.2 | 9.6 | 0.00 | 0.00 | 0.00 | 50 | 1010.0 |
| 20260505000058 | 67 | 132 | 6.1 | 10.4 | 0.00 | 0.00 | 0.00 | 46 | 1009.8 |
| 20260504234555 | 67 | 173 | 6.1 | 10.4 | 0.00 | 0.00 | 0.00 | 46 | 1009.6 |
| 20260504233101 | 68 | 156 | 4.3 | 13.0 | 0.00 | 0.00 | 0.00 | 43 | 1009.4 |
| 20260504231557 | 68 | 202 | 7.0 | 12.2 | 0.00 | 0.00 | 0.00 | 44 | 1009.2 |
| 20260504230058 | 69 | 206 | 7.8 | 13.0 | 0.00 | 0.00 | 0.00 | 40 | 1009.0 |
| 20260504224554 | 69 | 199 | 5.2 | 9.6 | 0.00 | 0.00 | 0.00 | 43 | 1009.1 |
| 20260504223102 | 69 | 191 | 6.1 | 11.3 | 0.00 | 0.00 | 0.00 | 42 | 1009.1 |
| 20260504221606 | 70 | 177 | 8.7 | 15.6 | 0.00 | 0.00 | 0.00 | 35 | 1009.2 |
| 20260504220132 | 69 | 175 | 7.8 | 17.4 | 0.00 | 0.00 | 0.00 | 37 | 1009.4 |
| 20260504214555 | 69 | 193 | 7.8 | 14.8 | 0.00 | 0.00 | 0.00 | 36 | 1009.4 |
| 20260504213122 | 70 | 168 | 7.8 | 19.1 | 0.00 | 0.00 | 0.00 | 36 | 1009.5 |
| 20260504211555 | 69 | 201 | 6.1 | 12.2 | 0.00 | 0.00 | 0.00 | 36 | 1009.5 |
| 20260504210101 | 69 | 183 | 7.0 | 20.0 | 0.00 | 0.00 | 0.00 | 36 | 1009.5 |
| 20260504204609 | 70 | 216 | 6.1 | 17.4 | 0.00 | 0.00 | 0.00 | 36 | 1009.4 |
| 20260504203056 | 69 | 188 | 7.8 | 13.9 | 0.00 | 0.00 | 0.00 | 36 | 1009.5 |
| 20260504201609 | 69 | 200 | 7.0 | 15.6 | 0.00 | 0.00 | 0.00 | 36 | 1009.4 |
| 20260504200107 | 67 | 204 | 5.2 | 11.3 | 0.00 | 0.00 | 0.00 | 41 | 1009.7 |